Flag for U.S.A. Weather past 2 weeks in Stillwater, Minnesota, U.S.A.

Now
69 °F

Partly cloudy.


Feels Like: 69 °F
Forecast: 58 / 82 °F
Wind: No wind

Location: St. Paul Downtown Holman Field

Current Time: Aug 1, 2015 at 2:54:58 AM

Latest Report: Aug 1, 2015 at 1:53 AM


Visibility: 10 mi

Pressure: 29.98 "Hg

Humidity: 68%

Dew point: 58 °F

Location of StillwaterLocation

Historic Weather in Stillwater — Graph

°F

Stillwater temperature yesterday

Maximum temperature yesterday: 82 °F (at 2:53 PM)
Minimum temperature yesterday: 66 °F (at 5:53 AM)
Average temperature yesterday: 75 °F

Past Weeks' High & Low Weather Summary

 TemperatureHumidityPressure
High88 °F (Jul 17, 4:53 PM)100% (Jul 17, 4:53 AM)30.05 "Hg (Jul 17, 4:53 AM)
Low60 °F (Jul 21, 5:53 AM)31% (Jul 31, 4:53 PM)29.65 "Hg (Jul 18, 2:53 AM)
Average75 °F66%29.88 "Hg
* Reported Jul 17 1:53 AM — Aug 1 1:53 AM, Stillwater, Weather by CustomWeather, © 2015

Note: Actual official high and low records may vary slightly from our data, if they occured in-between our weather recording intervals... More about our weather records

Advertising

Stillwater weather history for previous 24 hours

 ConditionsComfort  
Time TempWeatherWind HumidityBarometerVisibility
1:53 AM
Sat, Aug 1
69 °FPartly cloudy.No wind68%29.98 "Hg10 mi
12:53 AM70 °FPassing clouds.3 mph64%29.98 "Hg10 mi
11:53 PM
Fri, Jul 31
71 °FPassing clouds.3 mph61%29.98 "Hg10 mi
10:53 PM72 °FClear.7 mph57%29.97 "Hg10 mi
9:53 PM75 °FClear.8 mph50%29.97 "Hg10 mi
8:53 PM76 °FPassing clouds.10 mph47%29.96 "Hg10 mi
7:53 PM78 °FPassing clouds.14 mph42%29.95 "Hg10 mi
6:53 PM78 °FScattered clouds.20 mph40%29.96 "Hg10 mi
5:53 PM79 °FSunny.18 mph36%29.97 "Hg10 mi
4:53 PM82 °FSunny.22 mph31%29.97 "Hg10 mi
3:53 PM82 °FPassing clouds.18 mph32%29.98 "Hg10 mi
2:53 PM82 °FPassing clouds.25 mph32%30.00 "Hg10 mi
1:53 PM81 °FPassing clouds.22 mph33%30.02 "Hg10 mi
12:53 PM80 °FSunny.23 mph35%30.03 "Hg10 mi
11:53 AM79 °FPassing clouds.17 mph38%30.04 "Hg10 mi
10:53 AM78 °FSunny.23 mph39%30.04 "Hg10 mi
9:53 AM76 °FSunny.20 mph42%30.05 "Hg10 mi
8:53 AM73 °FSunny.10 mph50%30.05 "Hg10 mi
7:53 AM70 °FSunny.12 mph57%30.05 "Hg10 mi
6:53 AM67 °FClear.7 mph63%30.04 "Hg10 mi
5:53 AM66 °FClear.9 mph63%30.02 "Hg10 mi
4:53 AM68 °FClear.8 mph61%30.01 "Hg10 mi
3:53 AM70 °FClear.10 mph61%30.01 "Hg10 mi
2:53 AM69 °FClear.5 mph70%29.99 "Hg10 mi
Weather by CustomWeather, © 2015

See weather overviewHow to use our weather pages